Starlink 30911

operational
NORAD ID: 58374 Int'l Des: 2023-178 Owner: SPXS Country: US Constellation: starlink
LEOCIRCULAR

关于 Starlink 30911

正在加载描述...

实时位置

正在加载3D地球...

即将过境

高度历史

Altitude vs Time

uPlot chart will show altitude changes over time

两行轨道根数

1 58374U 23178A 25304.10443856 .00003650 00000-0 13532-3 0 9994
2 58374 53.1594 242.8156 0001227 88.7938 271.3203 15.30199088110047
Epoch: Oct 31, 2025 • Age: 12 hours

当前状态

高度 476.7 km
速度 7.63 km/s
星下点 32.24°N, 141.2°E
发射日期 Nov 20, 2023
运行时间 1.9 years
类型 internet

技术详情

分类 Payload
质量 730.00 kg
干质量 700.00 kg
总质量 730.00 kg
长度 0.30 m
直径 4.10 m
跨度 29.00 m
形状 Box + pan
制造商 SPXS
平台类型 Starlink V2M
阶段状态 In Orbit
所有者/国家 SPXS/US

大型星座

Loading constellations...